Find Starlink 37124

NORAD ID: 68283 Int'l Des: 2026-055 Owner: SPXS Country: US Constellation: starlink operational
LEOCIRCULAR

Current View

Loading 3D Globe...

About Starlink 37124

Starlink 37124 (NORAD 68283) is a starlink constellation satellite (v2 mini) launched Mar 19, 2026 by SPXS of US. It operates in LEO, CIRCULAR orbit with a mass of 575.00 kg.

About Starlink 37124

Description loading...

Upcoming Passes

Passes for default location (London). Set your location on the main map for personalized predictions.

Altitude History

Loading altitude history...

Two-Line Element Set

1 68283U 26055X 26169.49534370 .00013105 00000-0 39840-3 0 9991
2 68283 53.1577 211.1077 0001458 93.7044 266.4125 15.34393276 15365
Epoch: Jun 18, 2026 • Age: 10 hours

Current Status

Altitude 480.3 km
Velocity 7.62 km/s
Sub-Earth Point -48.77°S, 155.12°W
Launch Date Mar 19, 2026
Age 0.2 years
Type internet

Technical Details

Classification Payload
Mass 575.00 kg
Dry Mass 530.00 kg
Total Mass 575.00 kg
Length 0.30 m
Diameter 4.10 m
Span 29.00 m
Shape Box + pan
Manufacturer SPXS
Bus Type Starlink V2MO
Phase Status In Orbit
Owner/State SPXS/US

Most Searched